User: anonymous   Login
Location: Unspecified
(0.0000°N, 0.0000°E)
Time: 04:05:39
(UTC+00:00)
Language:

BEESAT - Orbit

View from above orbital plane
View from above orbital plane
View from above satellite
View from above satellite

Ground track
Ground track

The orbit data is extracted from the following two-line orbital elements,

1 35933U 09051C   18022.38628204  .00000121  00000-0  38372-4 0  9995
2 35933  98.5265 171.6834 0004977 318.9176  41.1645 14.56221893442329
Epoch (UTC): 22 January 2018 09:16:14
Eccentricity: 0.0004977
inclination: 98.5265°
perigee height: 702 km
apogee height: 709 km
right ascension of ascending node: 171.6834°
argument of perigee: 318.9176°
revolutions per day: 14.56221893
mean anomaly at epoch: 41.1645°
orbit number at epoch: 44232

The dashed part of the orbit path shows where the satellite is in the earth's shadow,  

DLR